| time (UTC) | temp F | wind direction | speed MPH | gust MPH | rain 1hr in | rain 24hr in | rain mn in | humidity % | barometer mb |
| 20260504000041 | 71 | 85 | 1.0 | 8.0 | 0.00 | 0.06 | 0.06 | 74 | 1016.0 |
| 20260503235525 | 71 | 64 | 1.0 | 10.0 | 0.00 | 0.07 | 0.06 | 74 | 1016.0 |
| 20260503235023 | 71 | 78 | 4.0 | 10.0 | 0.00 | 0.07 | 0.06 | 74 | 1015.8 |
| 20260503234542 | 72 | 63 | 5.0 | 10.0 | 0.00 | 0.07 | 0.06 | 74 | 1015.7 |
| 20260503234020 | 72 | 52 | 3.0 | 9.0 | 0.00 | 0.07 | 0.06 | 74 | 1015.8 |
| 20260503233526 | 72 | 61 | 3.0 | 9.0 | 0.00 | 0.07 | 0.06 | 74 | 1015.8 |
| 20260503233034 | 72 | 79 | 3.0 | 10.0 | 0.00 | 0.07 | 0.06 | 74 | 1015.8 |
| 20260503232522 | 72 | 85 | 4.0 | 10.0 | 0.00 | 0.07 | 0.06 | 74 | 1015.7 |
| 20260503232019 | 72 | 84 | 3.0 | 12.0 | 0.00 | 0.07 | 0.06 | 74 | 1015.8 |
| 20260503231541 | 72 | 73 | 3.0 | 12.0 | 0.00 | 0.07 | 0.06 | 75 | 1015.9 |
| 20260503231021 | 72 | 67 | 2.0 | 11.0 | 0.00 | 0.07 | 0.06 | 74 | 1015.9 |
| 20260503230521 | 72 | 70 | 5.0 | 11.0 | 0.00 | 0.07 | 0.06 | 74 | 1015.9 |
| 20260503230041 | 72 | 56 | 3.0 | 10.0 | 0.00 | 0.07 | 0.06 | 74 | 1015.9 |
| 20260503225520 | 72 | 74 | 3.0 | 14.0 | 0.00 | 0.08 | 0.06 | 74 | 1016.0 |
| 20260503225020 | 72 | 63 | 4.0 | 16.0 | 0.00 | 0.08 | 0.06 | 74 | 1015.8 |
| 20260503224539 | 72 | 40 | 8.0 | 16.0 | 0.00 | 0.08 | 0.06 | 73 | 1015.8 |
| 20260503224020 | 73 | 78 | 2.0 | 11.0 | 0.00 | 0.08 | 0.06 | 73 | 1015.8 |
| 20260503223520 | 73 | 47 | 3.0 | 13.0 | 0.00 | 0.08 | 0.06 | 73 | 1015.8 |
| 20260503223038 | 73 | 88 | 5.0 | 13.0 | 0.00 | 0.08 | 0.06 | 72 | 1015.7 |
| 20260503222519 | 73 | 336 | 4.0 | 12.0 | 0.00 | 0.08 | 0.06 | 73 | 1015.8 |
| 20260503222019 | 73 | 82 | 5.0 | 14.0 | 0.00 | 0.08 | 0.06 | 72 | 1015.8 |
| 20260503221545 | 73 | 88 | 5.0 | 14.0 | 0.00 | 0.08 | 0.06 | 72 | 1015.8 |
| 20260503221020 | 73 | 41 | 2.0 | 11.0 | 0.00 | 0.08 | 0.06 | 72 | 1015.7 |
| 20260503220521 | 73 | 0 | 3.0 | 13.0 | 0.00 | 0.08 | 0.06 | 73 | 1015.7 |
| 20260503220043 | 73 | 49 | 5.0 | 13.0 | 0.00 | 0.08 | 0.06 | 72 | 1015.7 |
| 20260503215523 | 73 | 81 | 6.0 | 13.0 | 0.00 | 0.10 | 0.06 | 73 | 1015.7 |
| 20260503215022 | 73 | 66 | 4.0 | 12.0 | 0.00 | 0.10 | 0.06 | 73 | 1015.7 |
| 20260503214540 | 73 | 72 | 2.0 | 12.0 | 0.00 | 0.10 | 0.06 | 73 | 1015.7 |
| 20260503214023 | 73 | 92 | 4.0 | 12.0 | 0.00 | 0.10 | 0.06 | 71 | 1015.6 |
| 20260503213520 | 73 | 58 | 4.0 | 12.0 | 0.00 | 0.10 | 0.06 | 71 | 1015.6 |
| 20260503213057 | 74 | 77 | 7.0 | 12.0 | 0.00 | 0.10 | 0.06 | 71 | 1015.6 |
| 20260503212520 | 74 | 97 | 3.0 | 11.0 | 0.00 | 0.10 | 0.06 | 72 | 1015.6 |
| 20260503212019 | 74 | 85 | 3.0 | 16.0 | 0.00 | 0.10 | 0.06 | 72 | 1015.7 |
| 20260503211537 | 74 | 55 | 3.0 | 16.0 | 0.00 | 0.10 | 0.06 | 72 | 1015.6 |
| 20260503211020 | 73 | 80 | 9.0 | 16.0 | 0.00 | 0.10 | 0.06 | 71 | 1015.6 |
| 20260503210520 | 74 | 0 | 0.0 | 11.0 | 0.00 | 0.10 | 0.06 | 71 | 1015.7 |
| 20260503210043 | 74 | 0 | 0.0 | 14.0 | 0.00 | 0.10 | 0.06 | 71 | 1015.6 |
| 20260503205521 | 73 | 96 | 4.0 | 14.0 | 0.00 | 0.20 | 0.06 | 72 | 1015.7 |
| 20260503205021 | 73 | 99 | 5.0 | 14.0 | 0.00 | 0.20 | 0.06 | 73 | 1015.7 |
| 20260503204550 | 73 | 77 | 9.0 | 15.0 | 0.00 | 0.20 | 0.06 | 72 | 1015.7 |
| 20260503204019 | 74 | 75 | 4.0 | 15.0 | 0.00 | 0.20 | 0.06 | 73 | 1015.8 |
| 20260503203519 | 74 | 91 | 6.0 | 13.0 | 0.00 | 0.20 | 0.06 | 72 | 1015.8 |
| 20260503203040 | 74 | 81 | 5.0 | 15.0 | 0.00 | 0.20 | 0.06 | 72 | 1015.7 |
| 20260503202520 | 74 | 84 | 10.0 | 15.0 | 0.00 | 0.20 | 0.06 | 71 | 1015.7 |
| 20260503202021 | 74 | 87 | 4.0 | 11.0 | 0.00 | 0.20 | 0.06 | 71 | 1015.7 |
| 20260503201540 | 75 | 71 | 2.0 | 9.0 | 0.00 | 0.20 | 0.06 | 71 | 1015.8 |
| 20260503201022 | 74 | 0 | 0.0 | 0.0 | 0.00 | 0.20 | 0.06 | 73 | 1015.7 |
| 20260503200520 | 74 | 0 | 0.0 | 0.0 | 0.00 | 0.20 | 0.06 | 71 | 1015.9 |
| 20260503200039 | 74 | 0 | 0.0 | 0.0 | 0.00 | 0.20 | 0.06 | 71 | 1015.9 |
| 20260503195523 | 74 | 0 | 0.0 | 12.0 | 0.00 | 0.20 | 0.06 | 72 | 1015.9 |
| 20260503195020 | 75 | 0 | 3.0 | 12.0 | 0.00 | 0.20 | 0.06 | 71 | 1016.0 |
| 20260503194538 | 75 | 46 | 3.0 | 12.0 | 0.00 | 0.20 | 0.06 | 72 | 1016.1 |
| 20260503194022 | 75 | 0 | 0.0 | 10.0 | 0.00 | 0.20 | 0.06 | 70 | 1016.1 |
| 20260503193521 | 75 | 0 | 0.0 | 14.0 | 0.00 | 0.20 | 0.06 | 70 | 1016.1 |
| 20260503193046 | 75 | 76 | 5.0 | 16.0 | 0.00 | 0.20 | 0.06 | 71 | 1016.3 |
| 20260503192519 | 75 | 76 | 7.0 | 16.0 | 0.00 | 0.20 | 0.06 | 71 | 1016.3 |
| 20260503192020 | 75 | 84 | 5.0 | 16.0 | 0.00 | 0.20 | 0.06 | 73 | 1016.4 |
| 20260503191542 | 74 | 87 | 9.0 | 16.0 | 0.00 | 0.20 | 0.06 | 73 | 1016.4 |
| 20260503191020 | 74 | 69 | 5.0 | 15.0 | 0.00 | 0.20 | 0.06 | 73 | 1016.4 |
| 20260503190521 | 74 | 40 | 7.0 | 20.0 | 0.00 | 0.20 | 0.06 | 73 | 1016.5 |
| 20260503190040 | 74 | 49 | 10.0 | 20.0 | 0.00 | 0.20 | 0.06 | 72 | 1016.5 |
| 20260503185520 | 74 | 75 | 9.0 | 16.0 | 0.00 | 0.20 | 0.06 | 71 | 1016.5 |
| 20260503185020 | 74 | 84 | 7.0 | 13.0 | 0.00 | 0.20 | 0.06 | 71 | 1016.7 |
| 20260503184548 | 75 | 55 | 5.0 | 13.0 | 0.00 | 0.20 | 0.06 | 72 | 1016.8 |
| 20260503184020 | 75 | 92 | 7.0 | 13.0 | 0.00 | 0.20 | 0.06 | 71 | 1016.9 |
| 20260503183520 | 75 | 0 | 0.0 | 0.0 | 0.00 | 0.20 | 0.06 | 70 | 1017.0 |
| 20260503183059 | 75 | 0 | 0.0 | 0.0 | 0.00 | 0.20 | 0.06 | 70 | 1017.0 |
| 20260503182519 | 75 | 0 | 0.0 | 17.0 | 0.00 | 0.20 | 0.06 | 71 | 1017.2 |
| 20260503182020 | 75 | 0 | 0.0 | 17.0 | 0.00 | 0.20 | 0.06 | 72 | 1017.2 |
| 20260503181542 | 75 | 77 | 9.0 | 17.0 | 0.00 | 0.20 | 0.06 | 70 | 1017.3 |
| 20260503181020 | 75 | 94 | 9.0 | 17.0 | 0.00 | 0.20 | 0.06 | 72 | 1017.5 |
| 20260503180521 | 74 | 80 | 5.0 | 13.0 | 0.00 | 0.20 | 0.06 | 72 | 1017.5 |
| 20260503180045 | 74 | 76 | 8.0 | 17.0 | 0.00 | 0.20 | 0.06 | 71 | 1017.3 |
| 20260503175521 | 74 | 73 | 9.0 | 17.0 | 0.00 | 0.20 | 0.06 | 72 | 1017.5 |
| 20260503175020 | 74 | 86 | 4.0 | 15.0 | 0.00 | 0.20 | 0.06 | 73 | 1017.5 |
| 20260503174537 | 74 | 65 | 9.0 | 17.0 | 0.00 | 0.20 | 0.06 | 73 | 1017.6 |
| 20260503174020 | 74 | 77 | 8.0 | 17.0 | 0.00 | 0.20 | 0.06 | 71 | 1017.5 |
| 20260503173520 | 74 | 88 | 8.0 | 14.0 | 0.00 | 0.20 | 0.06 | 73 | 1017.4 |
| 20260503173101 | 73 | 98 | 5.0 | 14.0 | 0.00 | 0.20 | 0.06 | 74 | 1017.4 |
| 20260503172519 | 73 | 87 | 6.0 | 14.0 | 0.00 | 0.20 | 0.06 | 71 | 1017.4 |
| 20260503172021 | 73 | 42 | 7.0 | 14.0 | 0.00 | 0.20 | 0.06 | 73 | 1017.5 |
| 20260503171545 | 73 | 65 | 3.0 | 12.0 | 0.00 | 0.20 | 0.06 | 74 | 1017.5 |
| 20260503171020 | 73 | 49 | 4.0 | 14.0 | 0.00 | 0.20 | 0.06 | 74 | 1017.5 |
| 20260503170521 | 73 | 88 | 8.0 | 15.0 | 0.00 | 0.20 | 0.06 | 74 | 1017.6 |
| 20260503150520 | 68 | 87 | 2.0 | 10.0 | 0.00 | 0.20 | 0.06 | 86 | 1018.0 |
| 20260503131021 | 65 | 0 | 1.0 | 4.0 | 0.00 | 0.20 | 0.06 | 93 | 1016.8 |
| 20260503130520 | 65 | 313 | 1.0 | 5.0 | 0.00 | 0.20 | 0.06 | 93 | 1016.7 |
| 20260503110523 | 63 | 82 | 0.0 | 4.0 | 0.00 | 0.20 | 0.06 | 96 | 1015.6 |
| 20260503081538 | 64 | 0 | 0.0 | 2.0 | 0.00 | 0.16 | 0.02 | 95 | 1014.5 |
| 20260503081023 | 64 | 22 | 0.0 | 2.0 | 0.00 | 0.16 | 0.02 | 95 | 1014.3 |
| 20260503080523 | 64 | 0 | 0.0 | 2.0 | 0.00 | 0.16 | 0.02 | 95 | 1014.4 |
| 20260503072524 | 64 | 5 | 0.0 | 3.0 | 0.00 | 0.16 | 0.02 | 95 | 1014.7 |
| 20260503072024 | 64 | 0 | 0.0 | 3.0 | 0.00 | 0.16 | 0.02 | 95 | 1014.6 |
| 20260503071543 | 64 | 0 | 0.0 | 3.0 | 0.00 | 0.16 | 0.02 | 95 | 1014.5 |
| 20260503071024 | 64 | 62 | 0.0 | 3.0 | 0.00 | 0.16 | 0.02 | 95 | 1014.3 |
| 20260503070523 | 64 | 62 | 0.0 | 3.0 | 0.00 | 0.16 | 0.02 | 95 | 1014.4 |
| 20260503055021 | 66 | 0 | 2.0 | 11.0 | 0.02 | 0.16 | 0.02 | 93 | 1014.6 |
| 20260503054540 | 67 | 300 | 1.0 | 11.0 | 0.01 | 0.15 | 0.01 | 93 | 1014.7 |
| 20260503054023 | 67 | 279 | 3.0 | 11.0 | 0.01 | 0.15 | 0.01 | 93 | 1014.6 |
| 20260503053520 | 67 | 326 | 2.0 | 10.0 | 0.01 | 0.15 | 0.01 | 93 | 1014.4 |
| 20260503053041 | 68 | 268 | 3.0 | 10.0 | 0.01 | 0.15 | 0.01 | 92 | 1014.6 |
| 20260503052523 | 68 | 0 | 1.0 | 5.0 | 0.01 | 0.15 | 0.01 | 92 | 1014.8 |
| 20260503052020 | 68 | 49 | 0.0 | 5.0 | 0.01 | 0.15 | 0.01 | 92 | 1014.8 |
| 20260503051535 | 69 | 329 | 1.0 | 5.0 | 0.01 | 0.15 | 0.01 | 92 | 1014.8 |
| 20260503051025 | 69 | 273 | 1.0 | 5.0 | 0.01 | 0.15 | 0.01 | 91 | 1014.6 |
| 20260503050520 | 69 | 18 | 1.0 | 9.0 | 0.00 | 0.14 | 0.00 | 91 | 1014.7 |
| 20260503050045 | 69 | 22 | 2.0 | 11.0 | 0.00 | 0.14 | 0.00 | 89 | 1014.6 |
| 20260503045520 | 70 | 5 | 3.0 | 11.0 | 0.00 | 0.14 | 0.00 | 89 | 1014.5 |
| 20260503045020 | 71 | 56 | 3.0 | 10.0 | 0.00 | 0.14 | 0.00 | 88 | 1014.3 |
| 20260503044541 | 72 | 303 | 4.0 | 10.0 | 0.00 | 0.14 | 0.00 | 90 | 1014.3 |
| 20260503044021 | 72 | 275 | 5.0 | 10.0 | 0.00 | 0.14 | 0.00 | 92 | 1014.0 |
| 20260503043520 | 72 | 288 | 6.0 | 10.0 | 0.00 | 0.14 | 0.00 | 92 | 1013.9 |
| 20260503043042 | 72 | 263 | 4.0 | 9.0 | 0.00 | 0.14 | 0.00 | 91 | 1013.8 |
| 20260503042520 | 72 | 281 | 4.0 | 9.0 | 0.00 | 0.14 | 0.00 | 91 | 1013.7 |
| 20260503042020 | 72 | 300 | 5.0 | 8.0 | 0.00 | 0.14 | 0.00 | 91 | 1013.6 |
| 20260503041536 | 72 | 297 | 4.0 | 10.0 | 0.00 | 0.14 | 0.00 | 91 | 1013.4 |
| 20260503041022 | 72 | 285 | 3.0 | 10.0 | 0.00 | 0.14 | 0.00 | 91 | 1013.4 |
| 20260503040519 | 72 | 244 | 5.0 | 11.0 | 0.00 | 0.14 | 0.00 | 91 | 1013.2 |
| 20260503040046 | 72 | 242 | 6.0 | 11.0 | 0.00 | 0.14 | 0.00 | 91 | 1013.2 |
| 20260503035521 | 72 | 241 | 7.0 | 11.0 | 0.00 | 0.14 | 0.14 | 91 | 1013.2 |
| 20260503035021 | 72 | 244 | 7.0 | 11.0 | 0.00 | 0.14 | 0.14 | 91 | 1013.3 |
| 20260503034559 | 72 | 249 | 6.0 | 11.0 | 0.00 | 0.14 | 0.14 | 91 | 1013.2 |
| 20260503034025 | 72 | 267 | 6.0 | 10.0 | 0.00 | 0.14 | 0.14 | 91 | 1013.0 |
| 20260503033520 | 72 | 259 | 5.0 | 12.0 | 0.00 | 0.14 | 0.14 | 92 | 1013.0 |
| 20260503033044 | 72 | 252 | 5.0 | 12.0 | 0.00 | 0.14 | 0.14 | 92 | 1013.0 |
| 20260503032519 | 72 | 256 | 6.0 | 12.0 | 0.00 | 0.14 | 0.14 | 91 | 1013.0 |
| 20260503032020 | 72 | 269 | 6.0 | 10.0 | 0.00 | 0.14 | 0.14 | 91 | 1012.8 |
| 20260503031543 | 72 | 275 | 5.0 | 10.0 | 0.00 | 0.14 | 0.14 | 91 | 1013.0 |
| 20260503031020 | 72 | 267 | 6.0 | 10.0 | 0.00 | 0.14 | 0.14 | 91 | 1012.9 |
| 20260503030519 | 72 | 257 | 6.0 | 12.0 | 0.00 | 0.14 | 0.14 | 91 | 1012.8 |
| 20260503030051 | 72 | 261 | 6.0 | 12.0 | 0.00 | 0.14 | 0.14 | 91 | 1012.7 |
| 20260503025520 | 72 | 267 | 5.0 | 12.0 | 0.00 | 0.14 | 0.14 | 91 | 1012.6 |
| 20260503025023 | 72 | 263 | 2.0 | 8.0 | 0.00 | 0.14 | 0.14 | 91 | 1012.6 |
| 20260503024543 | 72 | 242 | 4.0 | 8.0 | 0.00 | 0.14 | 0.14 | 91 | 1012.4 |
| 20260503024022 | 72 | 273 | 5.0 | 9.0 | 0.00 | 0.14 | 0.14 | 91 | 1012.4 |
| 20260503023523 | 72 | 240 | 4.0 | 10.0 | 0.00 | 0.14 | 0.14 | 91 | 1012.3 |
| 20260503023042 | 72 | 241 | 6.0 | 10.0 | 0.00 | 0.14 | 0.14 | 91 | 1012.3 |
| 20260503022522 | 72 | 229 | 5.0 | 11.0 | 0.00 | 0.14 | 0.14 | 91 | 1012.1 |
| 20260503022021 | 72 | 254 | 7.0 | 12.0 | 0.00 | 0.14 | 0.14 | 92 | 1012.0 |
| 20260503021544 | 72 | 250 | 7.0 | 12.0 | 0.00 | 0.14 | 0.14 | 92 | 1012.0 |
| 20260503021022 | 72 | 252 | 5.0 | 9.0 | 0.00 | 0.14 | 0.14 | 92 | 1012.0 |
| 20260503020524 | 72 | 275 | 4.0 | 10.0 | 0.00 | 0.14 | 0.14 | 92 | 1012.1 |
| 20260503020042 | 72 | 260 | 4.0 | 10.0 | 0.00 | 0.14 | 0.14 | 92 | 1011.9 |
| 20260503015520 | 72 | 249 | 3.0 | 12.0 | 0.00 | 0.14 | 0.14 | 92 | 1011.8 |
| 20260503015020 | 72 | 227 | 4.0 | 12.0 | 0.00 | 0.14 | 0.14 | 92 | 1011.7 |
| 20260503014545 | 72 | 236 | 8.0 | 12.0 | 0.00 | 0.14 | 0.14 | 92 | 1011.9 |
| 20260503014023 | 71 | 225 | 5.0 | 9.0 | 0.00 | 0.14 | 0.14 | 92 | 1011.7 |
| 20260503013523 | 71 | 275 | 2.0 | 6.0 | 0.00 | 0.14 | 0.14 | 91 | 1011.1 |
| 20260503013037 | 71 | 0 | 1.0 | 6.0 | 0.00 | 0.14 | 0.14 | 91 | 1010.8 |
| 20260503012523 | 71 | 315 | 1.0 | 6.0 | 0.00 | 0.14 | 0.14 | 91 | 1010.8 |
| 20260503012023 | 71 | 319 | 0.0 | 5.0 | 0.00 | 0.14 | 0.14 | 91 | 1010.8 |
| 20260503011535 | 71 | 268 | 2.0 | 6.0 | 0.00 | 0.14 | 0.14 | 91 | 1010.9 |
| 20260503011021 | 71 | 286 | 1.0 | 8.0 | 0.00 | 0.14 | 0.14 | 91 | 1010.8 |
| 20260503010522 | 71 | 261 | 3.0 | 9.0 | 0.00 | 0.14 | 0.14 | 91 | 1010.8 |
| 20260503010045 | 71 | 261 | 5.0 | 10.0 | 0.00 | 0.14 | 0.14 | 92 | 1010.9 |
| 20260503005523 | 71 | 281 | 4.0 | 10.0 | 0.00 | 0.14 | 0.14 | 92 | 1010.9 |
| 20260503005023 | 71 | 304 | 3.0 | 9.0 | 0.00 | 0.14 | 0.14 | 92 | 1010.8 |
| 20260503004540 | 71 | 294 | 4.0 | 8.0 | 0.00 | 0.14 | 0.14 | 92 | 1010.7 |
| 20260503004025 | 71 | 287 | 3.0 | 7.0 | 0.00 | 0.14 | 0.14 | 92 | 1010.6 |
| 20260503003523 | 71 | 284 | 3.0 | 7.0 | 0.00 | 0.14 | 0.14 | 92 | 1010.5 |
| 20260503003043 | 71 | 280 | 2.0 | 9.0 | 0.00 | 0.14 | 0.14 | 92 | 1010.5 |
| 20260503002523 | 71 | 289 | 2.0 | 9.0 | 0.00 | 0.14 | 0.14 | 92 | 1010.3 |
| 20260503002023 | 71 | 275 | 3.0 | 11.0 | 0.00 | 0.14 | 0.14 | 92 | 1010.3 |
| 20260503001541 | 71 | 267 | 4.0 | 11.0 | 0.00 | 0.14 | 0.14 | 92 | 1010.1 |
| 20260503001023 | 72 | 297 | 3.0 | 9.0 | 0.01 | 0.14 | 0.14 | 92 | 1009.9 |
| 20260503000522 | 72 | 263 | 5.0 | 12.0 | 0.01 | 0.14 | 0.14 | 92 | 1010.0 |